Sturgis, MI

12:55 PM EST on December 07, 2019 (GMT -0500)
Kirsch Municipal

Weather History for KIRS - October, 2019

Change the Weather History Date:

Wednesday, October 9, 2019

  Actual Average (WUND) Record (WUND)
Temperature  
Mean Temperature 59 °F -  
Max Temperature 70 °F - - (-1)
Min Temperature 48 °F - - (-1)
Degree Days  
Heating Degree Days 6    
Growing Degree Days 9 (Base 50)    
Moisture  
Dew Point 45 °F    
Average Humidity 62    
Maximum Humidity 87    
Minimum Humidity 33    
Precipitation  
Precipitation 0.00 in - - ()
Sea Level Pressure  
Sea Level Pressure 30.19 in    
Wind  
Wind Speed 6 mph ()    
Max Wind Speed 12 mph    
Max Gust Speed 18 mph    
Visibility 10.0 miles    
Events      
Averages and records for this station are not official NWS values.
T = Trace of Precipitation, MM = Missing Value Source: Averaged Metar Reports

Daily Weather History Graph

Daily Weather History Graph

Search for Another Location

Airport or City:

Astronomy

Oct. 09, 2019 Rise Set
Actual Time 7:47 AM EDT 7:10 PM EDT
Civil Twilight 7:19 AM EDT 7:38 PM EDT
Nautical Twilight 6:46 AM EDT 8:10 PM EDT
Astronomical Twilight 6:14 AM EDT 8:42 PM EDT
Moon 5:46 PM EDT (10/9) 3:27 AM EDT (10/9)
Length of Visible Light 12h 18m
Length of Day
11h 23m
Waxing Gibbous, 85% of the Moon is Illuminated
Oct 9
Waxing Gibbous
Oct 13
Full
Oct 21
Last Quarter
Oct 27
New
Nov 4
First Quarter

Hourly Weather History & Observations

Time (EDT) Temp. Dew Point Humidity Pressure Visibility Wind Dir Wind Speed Gust Speed Precip Events Conditions
12:15 AM 55.0 °F 43.7 °F 66% 30.19 in 10.0 mi SE 6.9 mph - N/A   Clear
12:38 AM 54.9 °F 44.6 °F 68% 30.19 in 10.0 mi ESE 6.9 mph - N/A   Clear
12:56 AM 54.3 °F 45.5 °F 72% 30.18 in 10.0 mi ESE 6.9 mph - N/A   Clear
1:15 AM 54.5 °F 46.4 °F 74% 30.18 in 10.0 mi ESE 6.9 mph - N/A   Clear
1:35 AM 54.3 °F 46.6 °F 75% 30.18 in 10.0 mi ESE 6.9 mph - N/A   Clear
1:36 AM 54.1 °F 46.6 °F 76% 30.18 in 10.0 mi ESE 6.9 mph - N/A   Clear
1:59 AM 53.6 °F 46.6 °F 77% 30.19 in 10.0 mi SE 4.6 mph - N/A   Clear
2:17 AM 52.5 °F 46.4 °F 80% 30.19 in 10.0 mi SE 3.5 mph - N/A   Clear
2:35 AM 51.6 °F 46.0 °F 81% 30.19 in 10.0 mi ESE 3.5 mph - N/A   Clear
2:36 AM 51.4 °F 46.0 °F 82% 30.19 in 10.0 mi ESE 3.5 mph - N/A   Clear
2:55 AM 50.9 °F 46.0 °F 83% 30.19 in 10.0 mi ESE 4.6 mph - N/A   Clear
3:15 AM 50.2 °F 45.9 °F 85% 30.19 in 10.0 mi ESE 3.5 mph - N/A   Clear
3:38 AM 50.0 °F 45.9 °F 86% 30.19 in 10.0 mi ESE 3.5 mph - N/A   Clear
3:56 AM 49.5 °F 45.7 °F 87% 30.19 in 10.0 mi ESE 4.6 mph - N/A   Clear
4:15 AM 49.6 °F 45.9 °F 87% 30.19 in 10.0 mi ESE 5.8 mph - N/A   Clear
4:35 AM 50.5 °F 46.6 °F 86% 30.19 in 10.0 mi ESE 5.8 mph - N/A   Clear
4:59 AM 50.5 °F 46.4 °F 86% 30.19 in 10.0 mi ESE 5.8 mph - N/A   Clear
5:17 AM 50.5 °F 46.0 °F 85% 30.20 in 10.0 mi ESE 4.6 mph - N/A   Clear
5:35 AM 50.4 °F 45.7 °F 84% 30.20 in 10.0 mi ESE 4.6 mph - N/A   Clear
5:55 AM 50.5 °F 45.9 °F 84% 30.21 in 10.0 mi ESE 5.8 mph - N/A   Clear
6:15 AM 50.9 °F 45.9 °F 83% 30.21 in 10.0 mi ESE 5.8 mph - N/A   Clear
6:20 AM 50.9 °F 45.9 °F 83% 30.21 in 10.0 mi ESE 5.8 mph - N/A   Clear
6:38 AM 50.0 °F 45.7 °F 85% 30.21 in 10.0 mi ESE 5.8 mph - N/A   Clear
6:56 AM 50.0 °F 45.7 °F 85% 30.22 in 10.0 mi ESE 4.6 mph - N/A   Clear
7:15 AM 49.5 °F 45.5 °F 86% 30.22 in 10.0 mi ESE 3.5 mph - N/A   Clear
7:35 AM 48.7 °F 45.0 °F 87% 30.22 in 10.0 mi ESE 3.5 mph - N/A   Clear
7:36 AM 48.7 °F 45.0 °F 87% 30.22 in 10.0 mi ESE 3.5 mph - N/A   Clear
7:59 AM 48.7 °F 45.0 °F 87% 30.22 in 10.0 mi East 3.5 mph - N/A   Clear
8:17 AM 49.3 °F 45.5 °F 87% 30.23 in 10.0 mi Calm Calm - N/A   Clear
8:35 AM 50.4 °F 45.9 °F 85% 30.23 in 10.0 mi Calm Calm - N/A   Clear
8:55 AM 52.9 °F 47.3 °F 81% 30.23 in 10.0 mi East 3.5 mph - N/A   Clear
8:56 AM 52.9 °F 47.3 °F 81% 30.23 in 10.0 mi Calm Calm - N/A   Clear
9:15 AM 54.7 °F 47.7 °F 77% 30.24 in 10.0 mi ESE 3.5 mph - N/A   Clear
9:56 AM 58.5 °F 47.1 °F 66% 30.24 in 10.0 mi ESE 5.8 mph - N/A   Clear
10:15 AM 59.9 °F 47.5 °F 64% 30.24 in 10.0 mi ESE 6.9 mph - N/A   Clear
10:16 AM 60.1 °F 47.7 °F 64% 30.24 in 10.0 mi SE 6.9 mph - N/A   Clear
10:35 AM 61.7 °F 47.5 °F 60% 30.24 in 10.0 mi SE 6.9 mph - N/A   Clear
10:36 AM 61.7 °F 47.5 °F 60% 30.24 in 10.0 mi ESE 5.8 mph - N/A   Clear
10:59 AM 63.5 °F 47.3 °F 56% 30.24 in 10.0 mi ESE 8.1 mph - N/A   Clear
11:17 AM 64.8 °F 46.6 °F 52% 30.24 in 10.0 mi SE 9.2 mph - N/A   Clear
11:35 AM 65.8 °F 45.5 °F 48% 30.23 in 10.0 mi ESE 8.1 mph - N/A   Clear
11:55 AM 66.9 °F 43.3 °F 42% 30.22 in 10.0 mi ESE 11.5 mph 16.1 mph N/A   Clear
11:56 AM 67.1 °F 43.2 °F 42% 30.22 in 10.0 mi ESE 10.4 mph 16.1 mph N/A   Clear
12:15 PM 67.3 °F 42.3 °F 40% 30.22 in 10.0 mi SE 11.5 mph - N/A   Clear
12:19 PM 67.6 °F 42.6 °F 40% 30.22 in 10.0 mi ESE 10.4 mph - N/A   Clear
12:38 PM 67.6 °F 42.3 °F 40% 30.21 in 10.0 mi SE 11.5 mph 18.4 mph N/A   Clear
12:56 PM 68.5 °F 42.4 °F 39% 30.21 in 10.0 mi East 11.5 mph - N/A   Clear
1:15 PM 68.4 °F 42.8 °F 40% 30.21 in 10.0 mi ESE 11.5 mph 17.3 mph N/A   Clear
1:35 PM 68.5 °F 42.1 °F 38% 30.20 in 10.0 mi SE 9.2 mph 18.4 mph N/A   Clear
1:59 PM 69.6 °F 42.1 °F 37% 30.19 in 10.0 mi ESE 10.4 mph - N/A   Clear
2:17 PM 69.4 °F 41.9 °F 37% 30.18 in 10.0 mi ESE 6.9 mph - N/A   Clear
2:35 PM 69.6 °F 41.2 °F 36% 30.17 in 10.0 mi ESE 10.4 mph - N/A   Clear
2:36 PM 69.4 °F 41.4 °F 36% 30.17 in 10.0 mi ESE 8.1 mph - N/A   Clear
2:55 PM 70.0 °F 42.4 °F 37% 30.16 in 10.0 mi ESE 11.5 mph - N/A   Clear
3:15 PM 70.2 °F 41.5 °F 35% 30.16 in 10.0 mi ESE 11.5 mph - N/A   Clear
3:38 PM 70.5 °F 41.5 °F 35% 30.16 in 10.0 mi East 6.9 mph - N/A   Clear
3:56 PM 70.3 °F 42.4 °F 36% 30.15 in 10.0 mi SE 6.9 mph - N/A   Clear
4:15 PM 70.3 °F 41.7 °F 35% 30.15 in 10.0 mi SE 9.2 mph - N/A   Clear
4:16 PM 70.5 °F 41.5 °F 35% 30.15 in 10.0 mi SE 9.2 mph - N/A   Clear
4:35 PM 70.2 °F 40.1 °F 34% 30.14 in 10.0 mi ESE 10.4 mph - N/A   Clear
4:59 PM 70.2 °F 39.7 °F 33% 30.14 in 10.0 mi SE 6.9 mph - N/A   Clear
5:17 PM 70.0 °F 41.0 °F 35% 30.14 in 10.0 mi East 10.4 mph - N/A   Clear
5:35 PM 69.3 °F 40.3 °F 35% 30.13 in 10.0 mi ESE 6.9 mph - N/A   Clear
5:36 PM 69.3 °F 40.5 °F 35% 30.13 in 10.0 mi ESE 6.9 mph - N/A   Clear
5:55 PM 68.7 °F 42.3 °F 38% 30.13 in 10.0 mi ESE 10.4 mph - N/A   Clear
5:56 PM 68.7 °F 42.3 °F 38% 30.13 in 10.0 mi ESE 9.2 mph - N/A   Clear
6:15 PM 68.0 °F 42.1 °F 39% 30.14 in 10.0 mi ESE 8.1 mph - N/A   Clear
6:38 PM 66.4 °F 43.5 °F 44% 30.14 in 10.0 mi ESE 6.9 mph - N/A   Clear
6:56 PM 65.1 °F 43.5 °F 45% 30.14 in 10.0 mi ESE 5.8 mph - N/A   Clear
7:15 PM 62.4 °F 44.2 °F 51% 30.14 in 10.0 mi ESE 3.5 mph - N/A   Clear
7:16 PM 62.2 °F 44.2 °F 52% 30.14 in 10.0 mi ESE 3.5 mph - N/A   Clear
7:35 PM 59.2 °F 45.3 °F 60% 30.14 in 10.0 mi East 4.6 mph - N/A   Clear
7:59 PM 60.4 °F 45.5 °F 58% 30.16 in 10.0 mi East 6.9 mph - N/A   Clear
8:17 PM 59.9 °F 45.9 °F 60% 30.16 in 10.0 mi ESE 6.9 mph - N/A   Clear
8:35 PM 59.4 °F 45.7 °F 61% 30.16 in 10.0 mi East 5.8 mph - N/A   Clear
8:55 PM 58.3 °F 45.7 °F 63% 30.16 in 10.0 mi East 5.8 mph - N/A   Clear
8:56 PM 58.3 °F 45.7 °F 63% 30.16 in 10.0 mi East 6.9 mph - N/A   Clear
9:15 PM 57.7 °F 45.5 °F 64% 30.16 in 10.0 mi East 5.8 mph - N/A   Clear
9:20 PM 57.6 °F 45.5 °F 64% 30.17 in 10.0 mi ESE 5.8 mph - N/A   Clear
9:38 PM 56.3 °F 45.5 °F 67% 30.17 in 10.0 mi East 5.8 mph - N/A   Clear
9:56 PM 56.3 °F 45.0 °F 66% 30.17 in 10.0 mi East 6.9 mph - N/A   Clear
10:15 PM 55.4 °F 44.8 °F 67% 30.16 in 10.0 mi East 6.9 mph - N/A   Clear
10:16 PM 55.4 °F 44.8 °F 67% 30.16 in 10.0 mi East 6.9 mph - N/A   Clear
10:35 PM 55.4 °F 44.6 °F 67% 30.17 in 10.0 mi East 6.9 mph - N/A   Clear
10:59 PM 54.0 °F 45.0 °F 72% 30.17 in 10.0 mi East 5.8 mph - N/A   Clear
11:17 PM 54.0 °F 45.5 °F 73% 30.17 in 10.0 mi East 4.6 mph - N/A   Clear
11:35 PM 53.8 °F 46.0 °F 75% 30.17 in 10.0 mi ESE 6.9 mph - N/A   Clear
11:55 PM 54.0 °F 46.6 °F 76% 30.17 in 10.0 mi ESE 5.8 mph - N/A   Clear